EW5523 Weather Reports


time (UTC)temp
F
wind
direction
speed
knots
gust
knots
rain 1hr
in
rain 24hr
in
rain mn
in
humidity
%
barometer
mb
20260510183038 40 332 0.0 0.0 0.00 0.00 0.00 57 1024.0
20260510181538 41 332 0.0 0.0 0.00 0.00 0.00 54 1024.0
20260510180036 42 332 0.0 0.0 0.00 0.00 0.00 50 1024.0
20260510174536 42 332 0.0 0.0 0.00 0.00 0.00 51 1023.8
20260510173036 44 332 0.0 0.0 0.00 0.00 0.00 46 1023.7
20260510171536 44 332 0.0 0.0 0.00 0.00 0.00 47 1023.7
20260510170040 45 332 0.0 0.0 0.00 0.00 0.00 46 1023.6
20260510164545 45 332 0.0 0.0 0.00 0.00 0.00 47 1023.5
20260510163034 45 332 0.0 0.0 0.00 0.00 0.00 46 1023.4
20260510161533 46 332 0.0 0.0 0.00 0.00 0.00 44 1023.3
20260510160033 47 332 0.0 0.0 0.00 0.00 0.00 42 1023.2
20260510154545 47 337 0.0 0.9 0.00 0.00 0.00 41 1023.1
20260510153032 49 329 0.0 1.7 0.00 0.00 0.00 40 1023.1
20260510151531 49 303 0.0 1.7 0.00 0.00 0.00 39 1023.1
20260510150031 49 333 0.0 4.3 0.00 0.00 0.00 39 1023.1
20260510144533 50 279 0.0 4.3 0.00 0.00 0.00 38 1023.2
20260510143030 50 327 0.9 7.8 0.00 0.00 0.00 38 1023.1
20260510141530 50 359 0.0 6.1 0.00 0.00 0.00 37 1023.1
20260510140029 50 326 0.0 7.8 0.00 0.00 0.00 37 1023.2
20260510134529 50 354 0.0 8.7 0.00 0.00 0.00 36 1023.2
20260510133028 50 354 3.5 10.4 0.00 0.00 0.00 35 1023.1
20260510131541 50 305 1.7 13.0 0.00 0.00 0.00 35 1023.1
20260510130028 51 289 0.9 7.8 0.00 0.00 0.00 35 1023.1
20260510124527 50 311 0.9 9.6 0.00 0.00 0.00 37 1023.1
20260510123026 49 317 2.6 9.6 0.00 0.00 0.00 36 1023.1
20260510121523 50 299 0.9 8.7 0.00 0.00 0.00 36 1023.2
20260510120028 49 318 2.6 12.2 0.00 0.00 0.00 36 1023.3
20260510114522 49 39 0.9 9.6 0.00 0.00 0.00 38 1023.4
20260510113021 49 313 0.9 6.1 0.00 0.00 0.00 38 1023.3
20260510111519 48 48 0.0 7.8 0.00 0.00 0.00 39 1023.3
20260510110018 48 4 0.0 8.7 0.00 0.00 0.00 40 1023.4
20260510104518 47 325 0.9 10.4 0.00 0.00 0.00 40 1023.5
20260510103019 48 289 0.9 8.7 0.00 0.00 0.00 39 1023.5
20260510101516 48 326 1.7 11.3 0.00 0.00 0.00 39 1023.5
20260510100016 47 256 0.0 10.4 0.00 0.00 0.00 39 1023.5
20260510094515 48 318 1.7 10.4 0.00 0.00 0.00 40 1023.5
20260510093012 47 4 0.9 10.4 0.00 0.00 0.00 38 1023.6
20260510091516 46 337 0.9 12.2 0.00 0.00 0.00 40 1023.6
20260510090012 47 312 0.0 10.4 0.00 0.00 0.00 39 1023.6
20260510084515 47 42 0.0 7.0 0.00 0.00 0.00 39 1023.5
20260510083009 46 347 0.0 9.6 0.00 0.00 0.00 40 1023.6
20260510081509 46 305 0.9 8.7 0.00 0.00 0.00 41 1023.7
20260510080008 47 8 0.0 8.7 0.00 0.00 0.00 40 1023.6
20260510074506 46 305 2.6 9.6 0.00 0.00 0.00 39 1023.6
20260510073006 45 330 0.9 6.1 0.00 0.00 0.00 40 1023.7
20260510071501 43 289 0.0 7.8 0.00 0.00 0.00 43 1023.8
20260510070001 43 314 0.0 7.8 0.00 0.00 0.00 43 1023.7
20260510064637 42 289 0.9 13.0 0.00 0.00 0.00 45 1023.9
20260510063059 44 21 0.0 6.1 0.00 0.00 0.00 43 1023.9
20260510061556 42 325 0.0 8.7 0.00 0.00 0.00 45 1024.1
20260510060055 41 286 2.6 11.3 0.00 0.00 0.00 48 1024.1
20260510054554 41 293 0.0 7.0 0.00 0.00 0.00 47 1024.2
20260510053054 41 328 0.9 9.6 0.00 0.00 0.00 48 1024.3
20260510051556 40 316 0.0 7.8 0.00 0.00 0.00 46 1024.2
20260510050051 40 302 1.7 11.3 0.00 0.00 0.00 45 1024.2
20260510044549 40 283 0.0 7.0 0.00 0.00 0.00 48 1024.1
20260510043050 39 8 0.0 7.0 0.00 0.00 0.00 48 1024.1
20260510041548 40 290 1.7 10.4 0.00 0.00 0.00 46 1024.1
20260510040048 39 349 0.0 7.8 0.00 0.00 0.00 49 1023.9
20260510034606 39 18 0.0 6.1 0.00 0.00 0.00 50 1023.9
20260510033050 38 354 0.0 5.2 0.00 0.00 0.00 50 1023.8
20260510031543 37 4 0.0 5.2 0.00 0.00 0.00 53 1023.8
20260510030041 37 322 0.0 6.1 0.00 0.00 0.00 56 1023.7
20260510024541 36 279 0.0 6.1 0.00 0.00 0.00 58 1023.7
20260510023039 36 354 0.0 6.1 0.00 0.00 0.00 61 1023.5
20260510021536 35 34 0.0 7.0 0.00 0.00 0.00 63 1023.5
20260510020036 35 359 0.0 7.0 0.00 0.00 0.00 64 1023.3
20260510014533 34 330 0.0 6.1 0.00 0.00 0.00 65 1023.0
20260510013033 34 324 0.0 4.3 0.00 0.00 0.00 66 1022.8
20260510011529 34 27 0.0 4.3 0.00 0.00 0.00 68 1022.6
20260510010027 34 317 0.0 3.5 0.00 0.00 0.00 68 1022.6
20260510004525 34 323 0.0 5.2 0.00 0.00 0.00 68 1022.4
20260510003023 34 326 0.0 7.0 0.00 0.00 0.00 69 1022.1
20260510001520 35 316 0.0 4.3 0.00 0.00 0.00 70 1021.8
20260510000020 35 10 0.0 8.7 0.00 0.00 0.00 72 1021.6
20260509234515 35 313 0.0 2.6 0.00 0.00 0.00 74 1021.4
20260509233018 35 312 0.0 3.5 0.00 0.00 0.00 75 1021.2
20260509231511 36 359 0.0 6.1 0.00 0.00 0.00 77 1021.2
20260509230009 36 326 0.0 4.3 0.00 0.00 0.00 79 1021.1
20260509224506 36 323 0.0 2.6 0.00 0.00 0.00 79 1021.0
20260509223004 36 278 0.0 7.0 0.00 0.00 0.00 78 1020.7
20260509221626 37 52 0.0 3.5 0.00 0.00 0.00 77 1020.6
20260509220100 37 339 0.0 4.3 0.00 0.00 0.00 75 1020.3
20260509214603 38 359 1.7 13.0 0.00 0.00 0.00 74 1020.2
20260509213152 38 359 0.0 6.1 0.00 0.00 0.00 72 1020.0
20260509211551 39 339 0.0 6.1 0.00 0.00 0.00 71 1019.8
20260509210049 39 354 0.0 5.2 0.00 0.00 0.00 71 1019.6
20260509204544 40 354 0.0 6.1 0.00 0.00 0.00 72 1019.4
20260509203043 40 326 0.0 2.6 0.00 0.00 0.00 73 1019.3
20260509201537 41 40 0.0 8.7 0.00 0.00 0.00 74 1019.1
20260509200041 41 339 0.0 7.8 0.00 0.00 0.00 73 1019.0
20260509194545 42 308 3.5 8.7 0.00 0.00 0.00 70 1018.6
20260509193036 43 320 0.9 8.7 0.00 0.00 0.00 68 1018.3
20260509191529 43 301 0.9 9.6 0.00 0.00 0.00 66 1018.1
20260509190026 44 287 0.9 14.8 0.00 0.00 0.00 64 1018.0
20260509184524 44 341 0.0 9.6 0.00 0.00 0.00 60 1017.7